Regional Weather Roundup
Issued by NWS Upton, NY

Current Version | Previous Version | Text Only | Print | Product List | Glossary On
Versions: 1 2 3 4 5 6 7 8 9 10 11 12 13 14 15 16 17 18 19 20 21 22 23 24 25 26 27
000
ASUS41 KOKX 220007
RWROKX

REGIONAL WEATHER ROUNDUP
NATIONAL WEATHER SERVICE NEW YORK NY
800 PM EDT TUE MAR 21 2017

NOTE: "FAIR" INDICATES FEW OR NO CLOUDS BELOW 12,000 FEET WITH NO
SIGNIFICANT WEATHER AND/OR OBSTRUCTIONS TO VISIBILITY.

NYZ071-072-176-178-NJZ106-104-220100-
NEW YORK CITY METRO AREA

CITY           SKY/WX    TMP DP  RH WIND       PRES   REMARKS
Central Park   CLEAR     55  25  31 NW9       29.87R
Wall St Helipt CLEAR     55  30  38 CALM      29.86R
LaGuardia APRT MOCLDY    57  26  30 NW17      29.84R
Kennedy INTL   MOCLDY    47  39  74 SW9       29.86R
Breezy Point     N/A     46 N/A N/A W8          N/A
Newark/Liberty MOCLDY    57  32  38 W8        29.85R
Teterboro      CLEAR     56  28  34 NW9       29.84R
$$

NYZ177-179-078>081-220100-
LONG ISLAND NEW YORK

CITY           SKY/WX    TMP DP  RH WIND       PRES   REMARKS
Jones Beach      N/A     43 N/A N/A SW9         N/A
Matinecock PT    N/A     52 N/A N/A W9          N/A
Farmingdale    CLEAR     47  34  60 W6        29.85R
MacArthur/ISP  PTCLDY    44  34  67 SW6       29.84R
Shirley        CLEAR     44  34  67 SW7       29.85R
Westhampton    CLEAR     42  32  67 SW6       29.85S
East Hampton     N/A     42  30  62 SW6       29.83S
Montauk          N/A     42  32  67 CALM      29.84S
$$

NYZ052-065-067-220100-
HUDSON VALLEY

CITY           SKY/WX    TMP DP  RH WIND       PRES   REMARKS
White Plains   PTCLDY    51  26  37 W6        29.83R
Newburgh       PTCLDY    48  27  43 NW6       29.85R
Montgomery     CLEAR     49  25  39 NW6       29.84R
Poughkeepsie   CLEAR     49  17  28 NW7       29.84R
Albany         PTCLDY    43  29  57 CALM      29.87S
$$

NJZ001-105-106-008-010-013-015-019>022-104-220100-
NEW JERSEY

CITY           SKY/WX    TMP DP  RH WIND       PRES   REMARKS
Newark/Liberty MOCLDY    57  32  38 W8        29.85R
Teterboro      CLEAR     56  28  34 NW9       29.84R
Caldwell       PTCLDY    51  28  41 CALM      29.86R
Somerville     CLEAR     50  34  54 CALM      29.85R
Linden           N/A     55  33  44 W8        29.86R
Sussex         CLEAR     49  28  44 VRB3      29.86R
Andover          N/A     41  32  70 CALM      29.85R
Trenton        CLEAR     54  35  48 W6        29.88R
Millville      CLOUDY    45  38  76 W3        29.90R
Atlantic City  CLOUDY    54  36  50 W7        29.89R
Wrightstown    CLEAR     52  35  52 NW8       29.86R
Toms River     CLEAR     44  35  70 SW3       29.88R
Belmar         CLEAR    N/A N/A N/A SW6       29.88R
$$

PAZ047>061-062-071-220100-
EASTERN PENNSYLVANIA

CITY           SKY/WX    TMP DP  RH WIND       PRES   REMARKS
Philadelphia   MOCLDY    55  36  48 W9        29.90R
Allentown      CLEAR     48  34  58 SW8       29.87R
Scranton       CLEAR     50  15  24 NW3       29.86R
$$

CTZ002-004>006-009-010-012-RIZ004-006-007-MAZ004-011-015-220100-
SOUTHERN NEW ENGLAND
 IN CT

CITY           SKY/WX    TMP DP  RH WIND       PRES   REMARKS
Bradley INTL   PTCLDY    48  29  47 NW6       29.81R
Hartford       CLEAR     47  27  45 CALM      29.81R
Danbury        CLEAR     50  27  40 W7        29.83R
Wtrbury/Oxford PTCLDY    50  27  40 NW7       29.82R
Bridgeport     PTCLDY    50  32  50 SW6       29.82R
Meriden        MOCLDY    42  30  62 CALM      29.81S
New Haven      CLEAR     44  32  62 SW5       29.82R
Chester          N/A     48  27  43 SW5       29.81S
Groton         CLEAR     43  32  65 W7        29.81S
Wilimantic     CLEAR     46  32  58 SW3       29.80R

 IN RI

CITY           SKY/WX    TMP DP  RH WIND       PRES   REMARKS
Providence     PTCLDY    51  28  41 W3        29.80R
Block Island   CLEAR     42  32  67 SW13      29.83R
Westerly       CLEAR     47  28  47 W6        29.82R
 IN MA

CITY           SKY/WX    TMP DP  RH WIND       PRES   REMARKS
Boston         PTCLDY    51  28  41 W15G22    29.79R
Worcester      CLEAR     43  26  51 W5        29.78R
Westfield      CLEAR     45  30  55 NW16      29.82R
Provincetown   CLEAR     40  32  73 SW7       29.80R
Nantucket      CLEAR     37  33  85 SW10      29.82R WCI  30
$$

ANZ330-335-338-340-345-350-353-355-220100-
COASTAL MARINE OBSERVATIONS


STATION/POSITION TIME  SKY/WX   TEMP    WIND        PRES    VSBY  WAVE
                                AIR SEA DIR/SP/G                  HT/PER
                 (UTC)          (F)     (DEG/KT/KT) (MB)    (MI)  (FT/S)
NY HARB ENTRANCE 2250            44 43  190/  8/ 10 1011.0          2/11
20 S FIRE ISLAND 2350            43 41  210/ 10/ 12 1011.0          3/11
GREAT SOUTH BAY  NOT AVBL
23 SSW MONTAUK P 2250            44 43              1010.7          2/10
15 E BARNEGAT LI 2330               43                N/A           4/11
HUDSON CANYON    2250            46 47  230/ 10/ 12 1011.8          3/10
KINGS POINT      2330            52 39              1010.0
EXECUTION ROCKS  NOT AVBL
CENTRAL LI SOUND 2330            44     220/  8/  8   N/A           1
EASTERN LI SOUND NOT AVBL
ROBBINS REEF     2330            56     280/ 11/ 14 1010.7
$$


>>>>>>>>>>>>>>>>>>>>>>>>>>>> KEY <<<<<<<<<<<<<<<<<<<<<<<<<<<
>                                                          <
>     SKY/WX - Sky Condition/Present Weather               <
>     TMP    - Temperature in Fahrenheit                   <
>     DP     - Dew Point in Fahrenheit                     <
>     RH     - Relative Humidity in Percent                <
>     WIND   - Direction (from) and Speed in MPH           <
>     PRES   - Mean Sea Level Pressure (inches of Hg)      <
>     WCI    - Wind Chill Index                            <
>     VSB    - VISIBILITY IN MILES                         <
>     HX     - HEAT INDEX                                  <
>     TC     - TEMPERATURE IN CELSIUS                      <
>     VRB    - VARIABLE WIND DIRECTION                     <
>                                                          <
>>>>>>>>>>>>>>>>>>>>>>>>>>>> KEY <<<<<<<<<<<<<<<<<<<<<<<<<<<




USA.gov is the U.S. government's official web portal to all federal, state and local government web resources and services.